TimeGMT,TemperatureF,Dew PointF,Humidity,Sea Level PressureIn,VisibilityMPH,Wind Direction,Wind SpeedMPH,Gust SpeedMPH,PrecipitationIn,Events,Conditions,WindDirDegrees,DateUTC
12:50 AM,41.0,35.6,81,29.95,6.2,South,8.1,-,N/A,,Overcast,170,2013-01-17 00:50:00
1:50 AM,42.8,37.4,81,29.98,6.2,South,9.2,-,N/A,,Overcast,180,2013-01-17 01:50:00
2:50 AM,42,37,76,29.99,12,South,11.5,,,,Overcast,180,2013-01-17 02:50:00
2:50 AM,42.8,37.4,81,29.98,6.2,South,11.5,-,N/A,,Overcast,180,2013-01-17 02:50:00
3:50 AM,42.8,37.4,81,29.95,6.2,South,10.4,-,N/A,,Scattered Clouds,180,2013-01-17 03:50:00
4:50 AM,42.8,39.2,87,29.95,6.2,South,10.4,-,N/A,,Overcast,180,2013-01-17 04:50:00
5:50 AM,42,38,82,29.96,12,South,12.7,,,,Overcast,180,2013-01-17 05:50:00
5:50 AM,42.8,39.2,87,29.95,6.2,South,12.7,-,N/A,,Overcast,180,2013-01-17 05:50:00
6:50 AM,42.8,39.2,87,29.95,6.2,South,12.7,-,N/A,Rain,Light Rain,170,2013-01-17 06:50:00
7:50 AM,42.8,41.0,93,29.95,3.1,South,10.4,-,N/A,,Mostly Cloudy,170,2013-01-17 07:50:00
8:50 AM,43,42,94,29.96,2,South,11.5,,,Rain,Light Rain,170,2013-01-17 08:50:00
8:50 AM,42.8,42.8,100,29.95,1.9,South,11.5,-,N/A,Rain,Light Rain,170,2013-01-17 08:50:00
9:50 AM,44.6,42.8,93,29.95,5.0,South,16.1,-,N/A,,Mostly Cloudy,180,2013-01-17 09:50:00
10:50 AM,44.6,42.8,93,29.92,6.2,South,12.7,25.3,N/A,,Haze,180,2013-01-17 10:50:00
11:50 AM,46,43,85,29.92,9,South,11.5,,,,Mostly Cloudy,180,2013-01-17 11:50:00
11:50 AM,46.4,42.8,87,29.92,6.2,South,11.5,26.5,N/A,,Mostly Cloudy,180,2013-01-17 11:50:00
12:50 PM,46.4,42.8,87,29.89,6.2,South,16.1,32.2,N/A,,Haze,170,2013-01-17 12:50:00
1:50 PM,44.6,42.8,93,29.86,6.2,South,16.1,27.6,N/A,Rain,Light Rain,170,2013-01-17 13:50:00
2:50 PM,45,42,85,29.86,9,South,16.1,,,Rain,Light Rain,170,2013-01-17 14:50:00
2:50 PM,44.6,42.8,93,29.83,6.2,South,16.1,28.8,N/A,,Haze,170,2013-01-17 14:50:00
3:50 PM,44.6,42.8,93,29.80,6.2,South,17.3,31.1,N/A,,Haze,170,2013-01-17 15:50:00
4:50 PM,44.6,42.8,93,29.80,3.7,South,19.6,34.5,N/A,Rain,Light Rain,170,2013-01-17 16:50:00
5:50 PM,44.6,41.0,87,29.77,6.2,South,26.5,41.4,N/A,,Overcast,170,2013-01-17 17:50:00
6:50 PM,44.6,41.0,87,29.77,6.2,South,24.2,36.8,N/A,Rain,Light Rain,170,2013-01-17 18:50:00
7:50 PM,42.8,41.0,93,29.74,6.2,SSE,24.2,36.8,N/A,Rain,Light Rain,160,2013-01-17 19:50:00
8:50 PM,43,42,95,29.72,4,SSE,26.5,,,Rain,Rain,160,2013-01-17 20:50:00
8:50 PM,42.8,42.8,100,29.71,3.7,SSE,26.5,-,N/A,Rain,Rain,160,2013-01-17 20:50:00
9:50 PM,42.8,41.0,93,29.68,4.3,SSE,31.1,-,N/A,,Mostly Cloudy,160,2013-01-17 21:50:00
10:50 PM,42.8,41.0,93,29.62,6.2,SSE,31.1,47.2,N/A,Rain,Light Rain,160,2013-01-17 22:50:00
11:50 PM,43,41,91,29.61,4,SSE,32.2,,,Rain,Rain,160,2013-01-17 23:50:00
11:50 PM,42.8,41.0,93,29.59,4.3,SSE,32.2,43.7,N/A,Rain,Rain,160,2013-01-17 23:50:00